Putney, VT

3:35 PM EDT on April 21, 2015 (GMT -0400)
Orange Municipal | | Change Station
CLOSE
Current Station
Airport
Location: Orange,
Elevation: 554 ft
Nearby Weather Stations

Elev 554 ft 42.57 °N, 72.29 °W | Updated 43 minutes ago

Overcast
Overcast
59 °F
Feels Like 59 °F
N
12
Wind Variable Wind from WSW

Today
High -- | Low -- °F
--% Chance of Precip.
Yesterday
High -- | Low -- °F
Precip. -- in
5:59 AM 7:39 PM
Waxing Crescent, 12% visible
Pressure 29.62 in
Visibility 10.0 miles
Clouds Mostly Cloudy 6000 ft
Dew Point 39 °F
Humidity 48%
Rainfall 0.35 in
Snow Depth Not available.
UV 4 out of 12
Pollen .50 out of 12
Air Quality Not available.
Flu Activity Regional
METAR KORE 211852Z AUTO 25010KT 10SM BKN060 15/04 A2961 RMK AO2 SLP029 T01500039

More Conditions Fewer Conditions

Pressure 29.62 in
Visibility 10.0 miles
Clouds Mostly Cloudy 6000 ft
Dew Point 39 °F
Humidity 48%
Rainfall 0.35 in
Snow Depth Not available.
UV 4 out of 12
Pollen .50 out of 12
Air Quality Not available.
Flu Activity Regional
METAR KORE 211852Z AUTO 25010KT 10SM BKN060 15/04 A2961 RMK AO2 SLP029 T01500039

More Conditions Fewer Conditions

10-Day Weather Forecast

Almanac

Astronomy

Apr. 21, 2015 Rise Set
Actual Time
Civil Twilight
Nautical Twilight
Astronomical Twilight
Moon
Length of Visible Light
Length of Day
Tomorrow will be .
, % of the Moon is Illuminated

Today's Extremes

State Highs State Lows

Community

WunderPhotos

Upload Photos

1,815,514 photos uploaded!

WunderBlogs® & News

Nearby

Air Quality

  Air Quality AQ Index Pollutant
Not available.

Snow Depth

Station Depth Elevation

Earthquake Activity

City Distance Mag. Time & Date
Minimum magnitude displayed is 2.5.

Coastal Water Temperatures

Place Temperature

Stations

Nearby Weather Stations

Station Location Temp. Windchill Dew Point Humidity Wind Precip. Elev Updated Type